カタログに戻る

COSMOS 1275 DEB

LostPO
NORAD 42201·DEBRIS·🇷🇺 Russia

打ち上げ Jun 4, 1981 から Plesetsk Cosmodrome

Loading…

次のパス (今後24時間)

TLE

古いSource: Space-Track

元期: Sep 2, 2024, 13:22 UTC

1 42201U 81053TR  24246.55754681  .00041033  00000-0  15931-1 0  9996
2 42201  82.7009 350.4008 0039221 139.7857 220.6243 14.29227364557594

AllMySatでCOSMOS 1275 DEBをリアルタイム追跡

Download on the App Store